This demonstration page uses our WeatherBlox Daily Observations layout. Learn more.

Left ArrowRight Arrow

39.08367, -84.50855

Hourly Observations for August 17, 2020

Temp ( °F °C ) Dew Point ( °F °C ) Humidity (%) Winds ( mph kmh ) Pressure ( in mb ) Visibility ( mi km ) Precip ( " mm )
12:53 am 00:53 Clear 65 18.3 61 16.1 87 87 N N/A 30.00 1016 10 16 N/A
1:53 am 01:53 Clear 63 17.2 61 16.1 93 93 N N/A 30.00 1016 10 16 N/A
2:53 am 02:53 Clear 62 16.7 60 15.6 93 93 N N/A 30.01 1016 10 16 N/A
3:53 am 03:53 Clear 62 16.7 61 16.1 96 96 N N/A 30.01 1016 10 16 N/A
4:53 am 04:53 Clear 61 16.1 60 15.6 97 97 N N/A 30.02 1017 9 14 N/A
5:53 am 05:53 Partly Cloudy 61 16.1 59 15 93 93 N N/A 30.02 1017 10 16 N/A
6:53 am 06:53 Clear 61 16.1 59 15 93 93 N N/A 30.02 1017 10 16 N/A
7:53 am 07:53 Sunny 63 17.2 61 16.1 93 93 N N/A 30.03 1017 10 16 N/A
8:53 am 08:53 Sunny 69 20.6 64 17.8 84 84 N N/A 30.03 1017 10 16 N/A
9:53 am 09:53 Sunny 74 23.3 64 17.8 71 71 N N/A 30.03 1017 10 16 N/A
10:53 am 10:53 Sunny 77 25 62 16.7 60 60 SW 3 6 30.03 1017 10 16 N/A
11:53 am 11:53 Sunny 82 27.8 63 17.2 53 53 SW 7 11 30.02 1017 10 16 N/A
12:53 pm 12:53 Sunny 83 28.3 63 17.2 51 51 SW 6 9 30.01 1016 10 16 N/A
1:53 pm 13:53 Partly Cloudy 84 28.9 63 17.2 49 49 SW 12 19 30.00 1016 10 16 N/A
2:53 pm 14:53 Partly Cloudy 87 30.6 62 16.7 43 43 W 10 17 29.98 1015 10 16 N/A
3:53 pm 15:53 Partly Cloudy 85 29.4 60 15.6 43 43 N 8 13 29.97 1015 10 16 N/A
4:53 pm 16:53 Partly Cloudy 84 28.9 59 15 43 43 NW 9 15 29.96 1015 10 16 N/A
5:53 pm 17:53 Sunny 84 28.9 58 14.4 41 41 NW 10 17 29.96 1015 10 16 N/A
6:53 pm 18:53 Partly Cloudy 85 29.4 60 15.6 43 43 NNW 5 7 29.95 1014 10 16 N/A
7:53 pm 19:53 Mostly Sunny 78 25.6 65 18.3 64 64 N N/A 29.96 1014 10 16 N/A
8:53 pm 20:53 Partly Cloudy 73 22.8 65 18.3 76 76 N N/A 29.97 1015 10 16 N/A
9:53 pm 21:53 Partly Cloudy 74 23.3 61 16.1 64 64 N N/A 29.98 1015 10 16 N/A
10:53 pm 22:53 Mostly Clear 72 22.2 65 18.3 79 79 NE 3 6 29.98 1015 10 16 N/A
11:53 pm 23:53 Partly Cloudy 69 20.6 65 18.3 87 87 N N/A 29.97 1015 10 16 N/A

Powered by AerisWeather